Location: Lanoux
(43.1180°N, 1.4255°E)
Time: 13:33:00
(UTC+00:00)

Meteor 2-10 - Pass Details

Date: 15 March 2026
Orbit: 736 x 866 km, 81.2° (Epoch: 18 April)

Event Time Altitude Azimuth Distance (km) Brightness Sun altitude
Rises 18:40:07 0° 182° (S) 3,315 7.3 -8.0°
Reaches altitude 10° 18:42:32 10° 180° (S) 2,368 6.5 -8.5°
Maximum altitude 18:47:50 71° 97° (E) 825 4.0 -9.4°
Drops below altitude 10° 18:52:59 10° 15° (NNE) 2,303 6.4 -10.4°
Sets 18:55:19 0° 13° (NNE) 3,218 7.2 -10.8°
